Retour au catalogue

THOR ABLESTAR DEB

ActifPO
NORAD 1504·DEBRIS·🇺🇸 United States

Lancé Aug 13, 1965 depuis Vandenberg Space Force Base

Loading…

Prochains Passages (prochaines 24 heures)

TLE

FraisSource: Space-Track

Époque: Sep 14, 2026, 10:43 UTC

1 01504U 65065A   26257.44712095  .00000146  00000-0  24807-3 0  9991
2 01504  89.9645 241.3440 0064744 326.1410 187.2398 13.40431766979663

Suivez THOR ABLESTAR DEB en temps réel avec AllMySat

Download on the App Store